Time,TemperatureF,DewpointF,PressureIn,WindDirection,WindDirectionDegrees,WindSpeedMPH,WindSpeedGustMPH,Humidity,HourlyPrecipIn,Conditions,Clouds,dailyrainin,SoftwareType,DateUTC
2013-05-07 00:03:00,70.0,-99.9,30.01,West,275,7.0,11.0,-999,-99.99,,,-99.99,,2013-05-07 04:03:00,
2013-05-07 00:12:00,70.0,-99.9,30.01,West,279,9.0,10.0,-999,-99.99,,,-99.99,,2013-05-07 04:12:00,
2013-05-07 00:23:00,69.0,-99.9,30.02,NW,322,6.0,8.0,-999,-99.99,,,-99.99,,2013-05-07 04:23:00,
2013-05-07 00:33:00,69.0,-99.9,30.02,NW,313,5.0,7.0,-999,-99.99,,,-99.99,,2013-05-07 04:33:00,
2013-05-07 00:42:00,69.0,-99.9,30.01,WNW,297,6.0,8.0,-999,-99.99,,,-99.99,,2013-05-07 04:42:00,
2013-05-07 00:53:00,69.0,-99.9,30.01,WNW,303,6.0,7.0,-999,-99.99,,,-99.99,,2013-05-07 04:53:00,
2013-05-07 01:02:00,69.0,-99.9,30.01,WNW,298,6.0,7.0,-999,-99.99,,,-99.99,,2013-05-07 05:02:00,
2013-05-07 01:12:00,68.0,-99.9,30.01,North,351,5.0,9.0,-999,-99.99,,,-99.99,,2013-05-07 05:12:00,
2013-05-07 01:22:00,68.0,-99.9,30.01,North,353,4.0,8.0,-999,-99.99,,,-99.99,,2013-05-07 05:22:00,
2013-05-07 01:32:00,67.0,-99.9,30.01,North,1,5.0,7.0,-999,-99.99,,,-99.99,,2013-05-07 05:32:00,
2013-05-07 01:43:00,67.0,-99.9,30.01,North,11,5.0,8.0,-999,-99.99,,,-99.99,,2013-05-07 05:43:00,
2013-05-07 01:52:00,66.0,-99.9,30.01,NNE,20,6.0,8.0,-999,-99.99,,,-99.99,,2013-05-07 05:52:00,
2013-05-07 02:02:00,66.0,-99.9,30.01,NNE,19,6.0,10.0,-999,-99.99,,,-99.99,,2013-05-07 06:02:00,
2013-05-07 02:12:00,66.0,-99.9,30.01,NNE,27,4.0,6.0,-999,-99.99,,,-99.99,,2013-05-07 06:12:00,
2013-05-07 02:22:00,65.0,-99.9,30.00,North,8,6.0,7.0,-999,-99.99,,,-99.99,,2013-05-07 06:22:00,
2013-05-07 02:32:00,65.0,-99.9,30.00,NNE,22,6.0,8.0,-999,-99.99,,,-99.99,,2013-05-07 06:32:00,
2013-05-07 02:42:00,65.0,-99.9,29.99,NNE,29,6.0,9.0,-999,-99.99,,,-99.99,,2013-05-07 06:42:00,
2013-05-07 02:52:00,65.0,-99.9,30.00,NNE,17,6.0,9.0,-999,-99.99,,,-99.99,,2013-05-07 06:52:00,
2013-05-07 03:02:00,65.0,-99.9,30.00,NNE,20,7.0,8.0,-999,-99.99,,,-99.99,,2013-05-07 07:02:00,
2013-05-07 03:11:00,65.0,-99.9,30.00,NNE,19,6.0,8.0,-999,-99.99,,,-99.99,,2013-05-07 07:11:00,
2013-05-07 03:22:00,65.0,-99.9,30.00,NNE,27,7.0,8.0,-999,-99.99,,,-99.99,,2013-05-07 07:22:00,
2013-05-07 03:32:00,65.0,-99.9,30.00,NNE,23,6.0,9.0,-999,-99.99,,,-99.99,,2013-05-07 07:32:00,
2013-05-07 03:42:00,64.0,-99.9,29.99,NNE,28,6.0,8.0,-999,-99.99,,,-99.99,,2013-05-07 07:42:00,
2013-05-07 03:53:00,65.0,-99.9,29.99,NE,45,5.0,7.0,-999,-99.99,,,-99.99,,2013-05-07 07:53:00,
2013-05-07 04:02:00,65.0,-99.9,29.99,NE,38,5.0,8.0,-999,-99.99,,,-99.99,,2013-05-07 08:02:00,
2013-05-07 04:11:00,65.0,-99.9,29.99,NNE,22,6.0,9.0,-999,-99.99,,,-99.99,,2013-05-07 08:11:00,
2013-05-07 04:22:00,65.0,-99.9,29.99,NNE,26,6.0,8.0,-999,-99.99,,,-99.99,,2013-05-07 08:22:00,
2013-05-07 04:32:00,65.0,-99.9,29.99,NNE,33,6.0,8.0,-999,-99.99,,,-99.99,,2013-05-07 08:32:00,
2013-05-07 04:42:00,64.0,-99.9,29.99,NNE,14,6.0,8.0,-999,-99.99,,,-99.99,,2013-05-07 08:42:00,
2013-05-07 04:52:00,64.0,-99.9,29.99,NNE,31,6.0,8.0,-999,-99.99,,,-99.99,,2013-05-07 08:52:00,
2013-05-07 05:02:00,64.0,-99.9,29.99,NE,39,5.0,7.0,-999,-99.99,,,-99.99,,2013-05-07 09:02:00,
2013-05-07 05:12:00,65.0,-99.9,29.99,NNE,33,6.0,7.0,-999,-99.99,,,-99.99,,2013-05-07 09:12:00,
2013-05-07 05:23:00,65.0,-99.9,29.99,NNE,29,5.0,8.0,-999,-99.99,,,-99.99,,2013-05-07 09:23:00,
2013-05-07 05:33:00,65.0,-99.9,29.99,NE,36,4.0,6.0,-999,-99.99,,,-99.99,,2013-05-07 09:33:00,
2013-05-07 05:43:00,63.0,-99.9,29.99,ESE,122,3.0,4.0,-999,-99.99,,,-99.99,,2013-05-07 09:43:00,
2013-05-07 05:53:00,63.0,-99.9,29.99,ESE,109,3.0,4.0,-999,-99.99,,,-99.99,,2013-05-07 09:53:00,
2013-05-07 06:03:00,63.0,-99.9,30.00,ESE,107,3.0,4.0,-999,-99.99,,,-99.99,,2013-05-07 10:03:00,
2013-05-07 06:13:00,63.0,-99.9,30.00,ENE,61,2.0,6.0,-999,-99.99,,,-99.99,,2013-05-07 10:13:00,
2013-05-07 06:23:00,64.0,-99.9,30.00,ENE,65,3.0,7.0,-999,-99.99,,,-99.99,,2013-05-07 10:23:00,
2013-05-07 06:33:00,63.0,-99.9,30.00,East,99,4.0,7.0,-999,-99.99,,,-99.99,,2013-05-07 10:33:00,
2013-05-07 06:42:00,62.0,-99.9,30.01,SE,126,2.0,3.0,-999,-99.99,,,-99.99,,2013-05-07 10:42:00,
2013-05-07 06:52:00,62.0,-99.9,30.01,ESE,107,2.0,3.0,-999,-99.99,,,-99.99,,2013-05-07 10:52:00,
2013-05-07 07:03:00,62.0,-99.9,30.01,East,88,2.0,4.0,-999,-99.99,,,-99.99,,2013-05-07 11:03:00,
2013-05-07 07:12:00,62.0,-99.9,30.01,ESE,111,2.0,4.0,-999,-99.99,,,-99.99,,2013-05-07 11:12:00,
2013-05-07 07:22:00,62.0,-99.9,30.02,ESE,120,2.0,3.0,-999,-99.99,,,-99.99,,2013-05-07 11:22:00,
2013-05-07 07:32:00,61.0,-99.9,30.02,SE,124,3.0,4.0,-999,-99.99,,,-99.99,,2013-05-07 11:32:00,
2013-05-07 07:42:00,62.0,-99.9,30.02,ESE,115,3.0,5.0,-999,-99.99,,,-99.99,,2013-05-07 11:42:00,
2013-05-07 07:52:00,63.0,-99.9,30.03,ESE,121,3.0,4.0,-999,-99.99,,,-99.99,,2013-05-07 11:52:00,
2013-05-07 08:02:00,62.0,-99.9,30.03,SE,133,5.0,7.0,-999,-99.99,,,-99.99,,2013-05-07 12:02:00,
2013-05-07 08:12:00,63.0,-99.9,30.04,SE,126,4.0,6.0,-999,-99.99,,,-99.99,,2013-05-07 12:12:00,
2013-05-07 08:22:00,64.0,-99.9,30.04,SE,124,4.0,5.0,-999,-99.99,,,-99.99,,2013-05-07 12:22:00,
2013-05-07 08:32:00,65.0,-99.9,30.04,ESE,111,3.0,5.0,-999,-99.99,,,-99.99,,2013-05-07 12:32:00,
2013-05-07 08:42:00,65.0,-99.9,30.04,ESE,112,4.0,6.0,-999,-99.99,,,-99.99,,2013-05-07 12:42:00,
2013-05-07 08:52:00,65.0,-99.9,30.05,ESE,119,5.0,7.0,-999,-99.99,,,-99.99,,2013-05-07 12:52:00,
2013-05-07 09:02:00,66.0,-99.9,30.05,East,83,3.0,4.0,-999,-99.99,,,-99.99,,2013-05-07 13:02:00,
2013-05-07 09:11:00,66.0,-99.9,30.05,ENE,78,4.0,4.0,-999,-99.99,,,-99.99,,2013-05-07 13:11:00,
2013-05-07 09:22:00,66.0,-99.9,30.05,NE,47,3.0,4.0,-999,-99.99,,,-99.99,,2013-05-07 13:22:00,
2013-05-07 09:32:00,67.0,-99.9,30.05,NE,45,4.0,6.0,-999,-99.99,,,-99.99,,2013-05-07 13:32:00,
2013-05-07 09:42:00,68.0,-99.9,30.05,NE,53,2.0,4.0,-999,-99.99,,,-99.99,,2013-05-07 13:42:00,
2013-05-07 09:52:00,68.0,-99.9,30.06,NNE,13,3.0,4.0,-999,-99.99,,,-99.99,,2013-05-07 13:52:00,
2013-05-07 10:02:00,68.0,-99.9,30.06,NNE,17,3.0,5.0,-999,-99.99,,,-99.99,,2013-05-07 14:02:00,
2013-05-07 10:11:00,69.0,-99.9,30.06,NNE,23,3.0,4.0,-999,-99.99,,,-99.99,,2013-05-07 14:11:00,
2013-05-07 10:22:00,69.0,-99.9,30.06,North,359,3.0,4.0,-999,-99.99,,,-99.99,,2013-05-07 14:22:00,
2013-05-07 10:32:00,69.0,-99.9,30.06,NNE,12,3.0,4.0,-999,-99.99,,,-99.99,,2013-05-07 14:32:00,
2013-05-07 10:42:00,71.0,-99.9,30.06,North,356,2.0,4.0,-999,-99.99,,,-99.99,,2013-05-07 14:42:00,
2013-05-07 10:52:00,74.0,-99.9,30.06,NW,314,2.0,3.0,-999,-99.99,,,-99.99,,2013-05-07 14:52:00,
2013-05-07 11:01:00,72.0,-99.9,30.06,West,265,2.0,4.0,-999,-99.99,,,-99.99,,2013-05-07 15:01:00,
2013-05-07 11:12:00,71.0,-99.9,30.06,WSW,246,4.0,6.0,-999,-99.99,,,-99.99,,2013-05-07 15:12:00,
2013-05-07 11:22:00,71.0,-99.9,30.06,SW,234,3.0,6.0,-999,-99.99,,,-99.99,,2013-05-07 15:22:00,
2013-05-07 11:33:00,71.0,-99.9,30.07,WSW,247,4.0,7.0,-999,-99.99,,,-99.99,,2013-05-07 15:33:00,
2013-05-07 11:43:00,73.0,-99.9,30.07,South,189,4.0,8.0,-999,-99.99,,,-99.99,,2013-05-07 15:43:00,
2013-05-07 11:53:00,72.0,-99.9,30.07,WSW,247,6.0,9.0,-999,-99.99,,,-99.99,,2013-05-07 15:53:00,
2013-05-07 12:03:00,72.0,-99.9,30.07,WSW,255,7.0,13.0,-999,-99.99,,,-99.99,,2013-05-07 16:03:00,
2013-05-07 12:12:00,74.0,-99.9,30.06,SSW,212,3.0,9.0,-999,-99.99,,,-99.99,,2013-05-07 16:12:00,
2013-05-07 12:22:00,73.0,-99.9,30.06,WSW,238,6.0,10.0,-999,-99.99,,,-99.99,,2013-05-07 16:22:00,
2013-05-07 12:32:00,73.0,-99.9,30.06,WSW,245,5.0,13.0,-999,-99.99,,,-99.99,,2013-05-07 16:32:00,
2013-05-07 12:42:00,73.0,-99.9,30.06,WSW,253,12.0,16.0,-999,-99.99,,,-99.99,,2013-05-07 16:42:00,
2013-05-07 12:52:00,73.0,-99.9,30.06,WSW,251,10.0,16.0,-999,-99.99,,,-99.99,,2013-05-07 16:52:00,
2013-05-07 13:01:00,75.0,-99.9,30.06,SW,222,5.0,12.0,-999,-99.99,,,-99.99,,2013-05-07 17:01:00,
2013-05-07 13:12:00,74.0,-99.9,30.05,SW,231,6.0,14.0,-999,-99.99,,,-99.99,,2013-05-07 17:12:00,
2013-05-07 13:21:00,74.0,-99.9,30.05,WSW,253,8.0,12.0,-999,-99.99,,,-99.99,,2013-05-07 17:21:00,
2013-05-07 13:32:00,74.0,-99.9,30.05,West,259,9.0,15.0,-999,-99.99,,,-99.99,,2013-05-07 17:32:00,
2013-05-07 13:41:00,74.0,-99.9,30.04,West,263,13.0,16.0,-999,-99.99,,,-99.99,,2013-05-07 17:41:00,
2013-05-07 13:53:00,74.0,-99.9,30.04,WSW,254,14.0,18.0,-999,-99.99,,,-99.99,,2013-05-07 17:53:00,
2013-05-07 14:01:00,74.0,-99.9,30.04,WSW,248,9.0,14.0,-999,-99.99,,,-99.99,,2013-05-07 18:01:00,
2013-05-07 14:12:00,74.0,-99.9,30.04,West,259,11.0,16.0,-999,-99.99,,,-99.99,,2013-05-07 18:12:00,
2013-05-07 14:21:00,74.0,-99.9,30.04,West,263,10.0,14.0,-999,-99.99,,,-99.99,,2013-05-07 18:21:00,
2013-05-07 14:32:00,74.0,-99.9,30.04,WSW,258,12.0,16.0,-999,-99.99,,,-99.99,,2013-05-07 18:32:00,
2013-05-07 14:42:00,75.0,-99.9,30.03,WSW,240,6.0,14.0,-999,-99.99,,,-99.99,,2013-05-07 18:42:00,
2013-05-07 14:52:00,74.0,-99.9,30.03,WSW,257,11.0,15.0,-999,-99.99,,,-99.99,,2013-05-07 18:52:00,
2013-05-07 15:02:00,75.0,-99.9,30.03,WSW,245,10.0,16.0,-999,-99.99,,,-99.99,,2013-05-07 19:02:00,
2013-05-07 15:11:00,74.0,-99.9,30.03,WSW,257,11.0,17.0,-999,-99.99,,,-99.99,,2013-05-07 19:11:00,
2013-05-07 15:22:00,74.0,-99.9,30.03,West,259,14.0,18.0,-999,-99.99,,,-99.99,,2013-05-07 19:22:00,
2013-05-07 15:32:00,74.0,-99.9,30.03,WSW,256,15.0,17.0,-999,-99.99,,,-99.99,,2013-05-07 19:32:00,
2013-05-07 15:42:00,74.0,-99.9,30.02,West,259,11.0,18.0,-999,-99.99,,,-99.99,,2013-05-07 19:42:00,
2013-05-07 15:52:00,74.0,-99.9,30.02,WSW,257,11.0,14.0,-999,-99.99,,,-99.99,,2013-05-07 19:52:00,
2013-05-07 16:02:00,74.0,-99.9,30.02,WSW,250,12.0,16.0,-999,-99.99,,,-99.99,,2013-05-07 20:02:00,
2013-05-07 16:12:00,74.0,-99.9,30.02,WSW,257,14.0,19.0,-999,-99.99,,,-99.99,,2013-05-07 20:12:00,
2013-05-07 16:22:00,74.0,-99.9,30.01,West,264,15.0,17.0,-999,-99.99,,,-99.99,,2013-05-07 20:22:00,
2013-05-07 16:32:00,74.0,-99.9,30.01,West,278,11.0,18.0,-999,-99.99,,,-99.99,,2013-05-07 20:32:00,
2013-05-07 16:42:00,74.0,-99.9,30.01,West,271,13.0,16.0,-999,-99.99,,,-99.99,,2013-05-07 20:42:00,
2013-05-07 16:52:00,75.0,-99.9,30.01,West,278,12.0,17.0,-999,-99.99,,,-99.99,,2013-05-07 20:52:00,
2013-05-07 17:02:00,75.0,-99.9,30.01,West,278,11.0,17.0,-999,-99.99,,,-99.99,,2013-05-07 21:02:00,
2013-05-07 17:11:00,74.0,-99.9,30.01,West,269,11.0,17.0,-999,-99.99,,,-99.99,,2013-05-07 21:11:00,
2013-05-07 17:22:00,75.0,-99.9,30.01,West,270,13.0,17.0,-999,-99.99,,,-99.99,,2013-05-07 21:22:00,
2013-05-07 17:33:00,75.0,-99.9,30.01,West,281,12.0,15.0,-999,-99.99,,,-99.99,,2013-05-07 21:33:00,
2013-05-07 17:43:00,74.0,-99.9,30.01,West,265,12.0,14.0,-999,-99.99,,,-99.99,,2013-05-07 21:43:00,
2013-05-07 17:53:00,75.0,-99.9,30.01,WNW,282,10.0,14.0,-999,-99.99,,,-99.99,,2013-05-07 21:53:00,
2013-05-07 18:02:00,75.0,-99.9,30.01,WNW,293,17.0,19.0,-999,-99.99,,,-99.99,,2013-05-07 22:02:00,
2013-05-07 18:13:00,75.0,-99.9,30.01,WNW,295,13.0,16.0,-999,-99.99,,,-99.99,,2013-05-07 22:13:00,
2013-05-07 18:23:00,75.0,-99.9,30.01,WNW,283,10.0,15.0,-999,-99.99,,,-99.99,,2013-05-07 22:23:00,
2013-05-07 18:33:00,75.0,-99.9,30.01,WNW,301,13.0,16.0,-999,-99.99,,,-99.99,,2013-05-07 22:33:00,
2013-05-07 18:42:00,75.0,-99.9,30.01,WNW,296,15.0,18.0,-999,-99.99,,,-99.99,,2013-05-07 22:42:00,
2013-05-07 18:52:00,74.0,-99.9,30.01,WNW,284,12.0,16.0,-999,-99.99,,,-99.99,,2013-05-07 22:52:00,
2013-05-07 19:02:00,74.0,-99.9,30.01,WNW,297,14.0,17.0,-999,-99.99,,,-99.99,,2013-05-07 23:02:00,
2013-05-07 19:12:00,75.0,-99.9,30.02,WNW,293,13.0,17.0,-999,-99.99,,,-99.99,,2013-05-07 23:12:00,
2013-05-07 19:22:00,74.0,-99.9,30.02,WNW,294,15.0,19.0,-999,-99.99,,,-99.99,,2013-05-07 23:22:00,
2013-05-07 19:32:00,74.0,-99.9,30.02,West,276,12.0,17.0,-999,-99.99,,,-99.99,,2013-05-07 23:32:00,
2013-05-07 19:42:00,73.0,-99.9,30.02,WNW,289,12.0,16.0,-999,-99.99,,,-99.99,,2013-05-07 23:42:00,
2013-05-07 19:52:00,73.0,-99.9,30.02,WNW,291,13.0,16.0,-999,-99.99,,,-99.99,,2013-05-07 23:52:00,
2013-05-07 20:02:00,73.0,-99.9,30.02,WNW,288,13.0,16.0,-999,-99.99,,,-99.99,,2013-05-08 00:02:00,
2013-05-07 20:12:00,73.0,-99.9,30.02,WNW,289,10.0,14.0,-999,-99.99,,,-99.99,,2013-05-08 00:12:00,
2013-05-07 20:22:00,73.0,-99.9,30.02,West,279,11.0,14.0,-999,-99.99,,,-99.99,,2013-05-08 00:22:00,
2013-05-07 20:32:00,72.0,-99.9,30.03,West,279,9.0,13.0,-999,-99.99,,,-99.99,,2013-05-08 00:32:00,
2013-05-07 20:42:00,72.0,-99.9,30.03,WNW,287,10.0,12.0,-999,-99.99,,,-99.99,,2013-05-08 00:42:00,
2013-05-07 20:52:00,72.0,-99.9,30.04,WNW,284,8.0,11.0,-999,-99.99,,,-99.99,,2013-05-08 00:52:00,
2013-05-07 21:02:00,72.0,-99.9,30.04,West,281,8.0,11.0,-999,-99.99,,,-99.99,,2013-05-08 01:02:00,
2013-05-07 21:12:00,72.0,-99.9,30.04,WNW,287,6.0,10.0,-999,-99.99,,,-99.99,,2013-05-08 01:12:00,
2013-05-07 21:22:00,71.0,-99.9,30.04,WNW,283,7.0,9.0,-999,-99.99,,,-99.99,,2013-05-08 01:22:00,
2013-05-07 21:32:00,71.0,-99.9,30.04,WNW,297,7.0,8.0,-999,-99.99,,,-99.99,,2013-05-08 01:32:00,
2013-05-07 21:42:00,71.0,-99.9,30.04,WNW,294,8.0,10.0,-999,-99.99,,,-99.99,,2013-05-08 01:42:00,
2013-05-07 21:52:00,71.0,-99.9,30.05,WNW,287,6.0,8.0,-999,-99.99,,,-99.99,,2013-05-08 01:52:00,
2013-05-07 22:02:00,71.0,-99.9,30.05,WNW,295,7.0,9.0,-999,-99.99,,,-99.99,,2013-05-08 02:02:00,
2013-05-07 22:12:00,71.0,-99.9,30.06,NW,305,6.0,9.0,-999,-99.99,,,-99.99,,2013-05-08 02:12:00,
2013-05-07 22:22:00,70.0,-99.9,30.06,NW,305,6.0,9.0,-999,-99.99,,,-99.99,,2013-05-08 02:22:00,
2013-05-07 22:32:00,71.0,-99.9,30.06,NW,316,6.0,8.0,-999,-99.99,,,-99.99,,2013-05-08 02:32:00,
2013-05-07 22:42:00,70.0,-99.9,30.06,NW,311,5.0,8.0,-999,-99.99,,,-99.99,,2013-05-08 02:42:00,
2013-05-07 22:52:00,71.0,-99.9,30.06,NW,311,5.0,6.0,-999,-99.99,,,-99.99,,2013-05-08 02:52:00,
2013-05-07 23:02:00,70.0,-99.9,30.06,NW,318,6.0,7.0,-999,-99.99,,,-99.99,,2013-05-08 03:02:00,
2013-05-07 23:11:00,70.0,-99.9,30.06,NW,319,5.0,7.0,-999,-99.99,,,-99.99,,2013-05-08 03:11:00,
2013-05-07 23:22:00,70.0,-99.9,30.06,NNW,331,4.0,6.0,-999,-99.99,,,-99.99,,2013-05-08 03:22:00,
2013-05-07 23:33:00,70.0,-99.9,30.06,NNW,343,3.0,5.0,-999,-99.99,,,-99.99,,2013-05-08 03:33:00,
2013-05-07 23:43:00,70.0,-99.9,30.06,NNW,335,4.0,5.0,-999,-99.99,,,-99.99,,2013-05-08 03:43:00,
2013-05-07 23:53:00,70.0,-99.9,30.07,North,350,4.0,5.0,-999,-99.99,,,-99.99,,2013-05-08 03:53:00,